CAPE
0 0 0 22 24 8 2 9 303 268 195 37 0 33 34 65 107 247 300 13 12 18 53 132 191 351 375 359 359 568 320 320 708 621 550 431 424 314 215 686 825 913 949 1115
0 0 0 0 2 6 5 12 201 213 188 75 2 19 56 74 130 168 267 2 4 26 103 128 215 337 341 404 470 579 370 429 754 715 621 474 370 236 208 390 747 972 994 967
0 0 0 0 0 0 0 38 230 163 77 138 93 56 60 58 111 179 279 23 6 35 94 164 266 324 363 267 357 484 463 243 441 619 677 704 557 524 372 451 675 772 968 867
0 0 0 0 0 0 0 45 95 183 47 5 89 0 79 127 167 235 133 45 35 33 83 152 272 326 295 184 191 189 298 236 109 640 753 750 779 570 552 585 692 772 988 1022
0 0 0 0 0 0 6 40 73 190 144 113 156 6 0 163 177 185 161 48 23 24 79 142 253 313 201 214 235 256 332 258 250 500 552 736 738 555 488 541 579 779 1018 1052
0 0 0 0 0 0 17 65 73 181 140 97 69 37 1 158 142 131 124 71 34 35 38 81 151 162 123 325 257 317 332 227 413 473 506 508 510 473 624 644 435 766 1051 1092
0 0 0 0 0 0 2 72 91 75 90 34 20 17 9 46 92 143 142 108 18 28 43 60 78 96 97 347 279 290 309 256 448 938 1022 829 539 309 457 811 719 767 1058 1085
0 0 0 0 0 0 0 3 3 15 1 17 4 3 2 72 52 178 299 192 271 211 44 39 36 98 121 266 409 296 302 267 264 565 774 914 698 375 390 652 748 895 952 976
0 0 0 0 0 0 0 0 0 0 0 14 14 36 153 157 271 384 365 235 365 190 121 68 42 143 143 193 380 657 361 286 243 378 608 908 901 667 384 441 820 625 360 844
0 0 0 0 0 0 0 0 0 0 0 1 43 77 93 336 356 379 350 262 236 180 145 190 238 123 209 281 343 493 731 512 404 507 656 857 872 792 615 524 595 630 408 488
0 0 0 0 0 0 0 0 0 0 0 8 76 61 844 600 571 437 200 256 318 230 167 154 156 116 211 289 347 370 528 475 638 652 718 1024 1073 1064 867 669 562 495 658 691
0 0 0 0 0 0 0 0 0 0 0 58 70 37 506 541 913 693 204 191 141 204 261 208 185 238 164 220 126 104 177 188 414 600 766 764 948 1039 1033 1114 951 1011 1462 1201
0 0 0 7 0 0 0 0 0 0 0 23 12 61 469 363 588 642 287 515 181 115 138 156 170 260 150 160 123 103 117 102 118 196 377 507 369 409 579 744 850 902 1212 1195
5 0 14 14 2 0 0 0 0 0 7 3 8 272 364 406 411 235 202 363 102 64 105 130 86 98 217 199 80 71 58 62 76 134 166 152 228 144 241 333 472 788 969 1086
13 12 25 36 13 2 0 0 0 0 4 6 101 204 332 383 415 309 75 43 39 74 100 94 102 123 106 114 113 104 178 187 94 54 54 68 125 149 113 167 332 375 531 973
3 12 17 34 23 11 0 0 5 55 191 105 242 409 219 263 234 136 58 14 34 65 101 114 110 213 310 189 158 224 147 197 148 113 115 181 180 109 75 18 193 178 277 614
1 8 18 26 12 11 0 2 4 156 200 304 254 281 332 277 220 140 184 71 69 30 14 32 111 164 204 241 331 297 287 123 110 116 208 248 288 263 178 139 47 99 211 378
0 0 0 22 23 24 2 196 307 285 356 333 299 269 251 173 157 118 119 107 40 31 32 115 216 174 249 243 360 313 621 324 157 176 126 225 278 261 215 209 173 165 136 170
0 0 0 1 3 3 23 4 52 76 203 232 244 264 272 164 123 127 92 69 28 21 0 0 12 35 25 64 125 238 303 340 388 252 201 168 176 240 237 233 220 196 132 174
0 0 0 0 0 0 2 0 0 131 151 280 220 212 192 149 106 89 93 89 34 0 0 0 0 0 0 0 0 0 0 0 35 77 157 201 223 342 360 330 275 235 208 131
0 0 0 0 0 0 0 0 0 0 0 243 259 248 246 226 170 147 170 85 0 0 0 0 0 0 0 0 0 0 0 0 0 0 0 0 0 3 151 230 291 163 82 152
0 0 0 0 0 0 0 0 0 0 0 236 267 275 265 229 165 125 111 92 8 0 0 0 0 0 0 0 0 0 0 0 0 0 0 0 0 0 0 0 0 34 48 66
0 0 0 0 0 0 0 0 0 0 159 302 243 273 172 221 169 92 53 17 22 12 3 0 0 0 0 0 0 0 0 0 0 0 0 0 0 0 0 0 0 0 0 0
0 0 0 0 0 0 0 0 0 0 0 295 268 185 202 154 64 52 56 16 0 0 0 0 0 0 0 0 0 0 0 0 0 0 0 0 0 0 0 0 0 0 0 0
0 0 0 0 0 0 0 0 0 0 0 60 102 180 139 72 66 38 9 1 0 0 0 0 0 0 0 0 0 0 0 0 0 0 0 0 0 0 0 0 0 0 0 0
0 0 0 0 13 11 0 0 0 1 1 9 33 49 63 41 30 17 1 0 0 0 0 0 0 0 0 0 0 0 0 0 0 0 0 0 0 0 0 0 0 0 0 0
CIN
-0 -0 -0 -33 -41 -39 -24 -34 -54 -65 -56 -15 -0 -1 -110 -102 -60 -49 -57 -1 -39 -48 -77 -63 -108 -102 -91 -87 -88 -51 -56 -38 -43 -40 -22 -28 -20 -24 -27 -29 -44 -42 -33 -36
-0 -0 -0 -0 -48 -31 -8 -13 -49 -13 -31 -36 -3 -57 -41 -34 -51 -64 -52 -10 -37 -39 -69 -95 -92 -88 -83 -89 -70 -51 -66 -27 -22 -22 -61 -43 -24 -92 -41 -31 -26 -19 -24 -29
-0 -0 -0 -0 -0 -0 -0 -5 -73 -81 -75 -66 -6 -14 -29 -42 -49 -57 -61 -15 -45 -57 -61 -82 -91 -89 -71 -82 -76 -64 -60 -38 -29 -39 -49 -40 -58 -85 -109 -31 -32 -26 -31 -46
-0 -0 -0 -0 -0 -0 -0 -1 -40 -68 -24 -87 -82 -0 -43 -30 -26 -22 -33 -10 -33 -34 -40 -82 -86 -70 -85 -85 -73 -47 -86 -39 -71 -43 -23 -29 -29 -38 -46 -43 -25 -34 -39 -30
-0 -0 -0 -0 -0 -0 -15 -1 -0 -134 -87 -89 -88 -19 -0 -49 -1 -14 -32 -6 -5 -37 -38 -55 -74 -87 -84 -142 -135 -115 -75 -52 -128 -40 -22 -34 -22 -14 -41 -46 -37 -39 -43 -24
-0 -0 -0 -0 -0 -0 -14 -87 -126 -98 -56 -21 -132 -64 -38 -124 -118 -131 -95 -24 -33 -45 -30 -48 -102 -102 -77 -156 -79 -76 -71 -92 -125 -78 -26 -20 -29 -7 -38 -87 -39 -49 -32 -22
-0 -0 -0 -0 -0 -0 -2 -51 -42 -23 -5 -49 -33 -66 -10 -122 -196 -237 -163 -28 -19 -4 -12 -31 -49 -114 -123 -140 -123 -111 -95 -73 -97 -55 -27 -23 -25 -36 -78 -34 -50 -58 -28 -22
-0 -0 -0 -0 -0 -0 -0 -6 -1 -4 -1 -45 -9 -93 -100 -198 -172 -104 -83 -153 -163 -161 -2 -14 -112 -80 -104 -146 -162 -141 -107 -47 -69 -77 -69 -31 -21 -50 -73 -51 -38 -32 -28 -27
-0 -0 -0 -0 -0 -0 -0 -0 -0 -0 -0 -27 -76 -132 -136 -206 -158 -98 -66 -131 -124 -169 -184 -172 -7 -48 -108 -150 -128 -116 -138 -53 -59 -138 -101 -48 -23 -37 -46 -74 -38 -28 -57 -19
-0 -0 -0 -0 -0 -0 -0 -0 -0 -0 -0 -3 -72 -71 -69 -83 -110 -72 -76 -36 -82 -96 -175 -201 -82 -29 -111 -136 -139 -115 -81 -74 -79 -78 -93 -47 -69 -51 -32 -28 -30 -26 -34 -67
-0 -0 -0 -0 -0 -0 -0 -0 -0 -0 -0 -10 -49 -57 -15 -36 -57 -88 -99 -57 -23 -112 -67 -75 -158 -106 -80 -95 -111 -107 -97 -87 -50 -41 -57 -50 -36 -52 -35 -34 -50 -40 -11 -16
-0 -0 -0 -0 -0 -0 -0 -0 -0 -0 -0 -62 -46 -141 -79 -51 -19 -33 -52 -85 -106 -110 -85 -64 -95 -86 -70 -60 -32 -87 -83 -70 -74 -32 -23 -48 -41 -35 -44 -32 -33 -93 -31 -21
-0 -0 -2 -5 -0 -0 -0 -0 -0 -0 -0 -65 -110 -122 -57 -73 -35 -52 -90 -46 -89 -111 -91 -62 -67 -48 -66 -65 -49 -74 -36 -76 -41 -63 -29 -26 -45 -47 -29 -49 -46 -51 -38 -23
-8 -0 -21 -3 -1 -0 -0 -0 -0 -0 -3 -30 -185 -98 -59 -48 -26 -94 -104 -38 -58 -65 -85 -118 -109 -61 -92 -86 -111 -23 -136 -36 -34 -96 -49 -63 -38 -151 -73 -37 -42 -41 -50 -36
-4 -14 -9 -6 -2 -2 -0 -0 -0 -0 -2 -14 -186 -116 -108 -109 -49 -42 -40 -3 -83 -103 -97 -93 -117 -95 -148 -72 -41 -116 -98 -32 -39 -8 -15 -198 -31 -38 -34 -45 -37 -38 -46 -39
-18 -19 -25 -5 -6 -5 -2 -0 -122 -244 -284 -288 -139 -41 -95 -117 -100 -75 -59 -172 -121 -90 -127 -128 -89 -83 -69 -66 -85 -79 -75 -26 -34 -99 -79 -66 -12 -154 -191 -126 -34 -58 -56 -39
-7 -12 -19 -14 -31 -16 -0 -9 -101 -190 -219 -211 -101 -151 -113 -99 -110 -99 -92 -101 -82 -113 -169 -104 -87 -82 -80 -70 -38 -40 -36 -53 -40 -32 -44 -64 -25 -51 -105 -74 -34 -18 -99 -77
-0 -0 -4 -7 -12 -2 -2 -83 -112 -145 -122 -136 -134 -102 -75 -67 -80 -116 -100 -125 -143 -127 -113 -69 -40 -89 -72 -62 -36 -27 -0 -19 -63 -101 -62 -47 -11 -4 -18 -44 -37 -65 -50 -34
-0 -0 -0 -1 -15 -17 -8 -12 -48 -78 -98 -67 -76 -59 -49 -46 -47 -49 -69 -86 -116 -157 -21 -0 -15 -102 -146 -98 -56 -31 -13 -6 -4 -30 -29 -34 -28 -25 -27 -25 -13 -2 -15 -22
-0 -0 -0 -0 -0 -0 -7 -0 -0 -41 -25 -2 -30 -43 -36 -32 -26 -57 -55 -46 -49 -0 -0 -0 -0 -0 -0 -0 -0 -0 -0 -0 -75 -60 -33 -19 -16 -2 -0 -0 -2 -10 -23 -50
-0 -0 -0 -0 -0 -0 -0 -0 -0 -0 -0 -39 -13 -17 -15 -22 -16 -10 -1 -11 -0 -0 -0 -0 -0 -0 -0 -0 -0 -0 -0 -0 -0 -0 -0 -0 -0 -8 -42 -9 -0 -13 -71 -59
-0 -0 -0 -0 -0 -0 -0 -0 -0 -0 -0 -39 -51 -38 -22 -29 -22 -21 -16 -5 -16 -0 -0 -0 -0 -0 -0 -0 -0 -0 -0 -0 -0 -0 -0 -0 -0 -0 -0 -0 -0 -22 -59 -63
-0 -0 -0 -0 -0 -0 -0 -0 -0 -0 -56 -44 -37 -39 -23 -15 -21 -37 -14 -17 -37 -21 -27 -0 -0 -0 -0 -0 -0 -0 -0 -0 -0 -0 -0 -0 -0 -0 -0 -0 -0 -0 -0 -0
-0 -0 -0 -0 -0 -0 -0 -0 -0 -0 -9 -45 -29 -19 -14 -26 -10 -16 -13 -8 -13 -0 -0 -0 -0 -0 -0 -0 -0 -0 -0 -0 -0 -0 -0 -0 -0 -0 -0 -0 -0 -0 -0 -0
-0 -0 -0 -0 -7 -0 -0 -0 -0 -0 -0 -17 -18 -0 -1 -5 -0 -0 -3 -4 -0 -0 -0 -0 -0 -0 -0 -0 -0 -0 -0 -0 -0 -0 -0 -0 -0 -0 -0 -0 -0 -0 -0 -0
-0 -0 -0 -0 -7 -4 -0 -0 -0 -4 -4 -3 -1 -0 -0 -0 -0 -2 -0 -0 -0 -0 -0 -0 -0 -0 -0 -0 -0 -0 -0 -0 -0 -0 -0 -0 -0 -0 -0 -0 -0 -0 -0 -0
Wind_Speed
nan nan nan nan nan nan nan nan 32 30 25 nan nan nan nan nan 11 10 11 nan nan nan nan 2 4 3 2 5 7 8 3 7 8 11 13 12 14 14 11 14 14 12 13 14
nan nan nan nan nan nan nan nan 31 31 20 nan nan nan nan nan 16 16 13 nan nan nan 4 5 3 2 4 4 5 6 4 1 8 8 13 12 13 13 12 12 12 15 13 14
nan nan nan nan nan nan nan nan 22 26 nan 21 nan nan nan nan 15 15 16 nan nan nan nan 2 5 5 0 4 6 5 5 2 4 5 8 11 13 13 12 12 12 11 10 13
nan nan nan nan nan nan nan nan nan 30 nan nan nan nan nan 8 11 15 11 nan nan nan nan 1 4 3 2 2 6 6 4 1 1 4 7 7 9 12 13 12 12 12 9 10
nan nan nan nan nan nan nan nan nan 29 32 29 26 nan nan 18 10 20 15 nan nan nan nan 4 4 5 1 4 1 4 4 4 2 2 1 4 8 12 13 12 11 12 9 9
nan nan nan nan nan nan nan nan nan 41 37 nan nan nan nan 7 14 8 16 nan nan nan nan nan 4 2 1 3 4 2 4 5 5 5 3 2 3 9 11 12 12 11 9 9
nan nan nan nan nan nan nan nan nan nan nan nan nan nan nan nan nan 20 9 3 nan nan nan nan nan nan nan 5 7 8 8 9 8 8 7 4 2 6 9 9 10 9 9 9
nan nan nan nan nan nan nan nan nan nan nan nan nan nan nan nan nan 10 10 11 14 14 nan nan nan nan 10 7 10 10 11 13 13 12 9 10 8 9 9 8 9 10 9 10
nan nan nan nan nan nan nan nan nan nan nan nan nan nan 30 37 29 17 18 16 13 17 20 nan nan 29 23 20 19 18 19 22 20 16 16 15 14 11 10 10 9 10 10 11
nan nan nan nan nan nan nan nan nan nan nan nan nan nan nan 27 25 20 19 18 15 19 17 25 24 18 21 24 24 28 24 19 21 20 20 19 17 17 16 14 12 11 12 11
nan nan nan nan nan nan nan nan nan nan nan nan nan nan 32 27 26 22 23 22 19 19 18 21 15 8 7 22 25 29 33 33 25 22 23 22 21 22 22 19 16 14 13 10
nan nan nan nan nan nan nan nan nan nan nan nan nan nan 33 35 33 31 29 28 25 23 23 18 15 10 11 19 27 37 38 36 33 33 30 29 27 25 24 23 22 21 18 13
nan nan nan nan nan nan nan nan nan nan nan nan nan nan 36 36 32 32 32 27 28 25 25 23 18 17 15 21 24 22 34 35 30 36 38 37 34 33 32 28 26 24 21 20
nan nan nan nan nan nan nan nan nan nan nan nan nan 46 39 34 35 30 35 38 35 nan 30 28 nan nan 23 19 nan nan nan nan nan 33 34 33 36 38 38 36 36 35 26 20
nan nan nan nan nan nan nan nan nan nan nan nan 47 50 43 41 40 36 nan nan nan nan 35 nan 31 32 28 27 27 21 20 25 nan nan nan nan 34 35 40 41 37 38 38 30
nan nan nan nan nan nan nan nan nan nan 50 58 50 52 46 43 40 41 nan nan nan nan 24 35 31 27 29 29 26 24 23 29 23 23 40 34 33 41 nan nan 38 38 41 39
nan nan nan nan nan nan nan nan nan 44 46 55 47 45 48 44 43 45 42 nan nan nan nan nan 24 21 25 28 28 31 28 25 27 30 29 26 45 27 33 43 nan nan 46 44
nan nan nan nan nan nan nan 39 48 49 46 51 60 56 53 54 53 53 44 44 nan nan nan 29 27 27 27 29 31 29 31 29 29 29 29 25 15 19 18 17 26 48 48 50
nan nan nan nan nan nan nan nan nan nan 40 45 57 54 56 58 64 55 nan nan nan nan nan nan nan nan nan nan 29 33 34 35 36 35 29 27 24 21 19 13 14 13 24 28
nan nan nan nan nan nan nan nan nan 47 45 40 43 48 54 55 50 nan nan nan nan nan nan nan nan nan nan nan nan nan nan nan nan nan 27 25 25 25 24 18 16 16 12 16
nan nan nan nan nan nan nan nan nan nan nan 46 45 41 39 42 48 55 53 nan nan nan nan nan nan nan nan nan nan nan nan nan nan nan nan nan nan nan 27 25 22 22 nan 26
nan nan nan nan nan nan nan nan nan nan nan 39 37 40 44 47 51 51 49 nan nan nan nan nan nan nan nan nan nan nan nan nan nan nan nan nan nan nan nan nan nan nan nan nan
nan nan nan nan nan nan nan nan nan nan 45 41 40 47 43 51 56 nan nan nan nan nan nan nan nan nan nan nan nan nan nan nan nan nan nan nan nan nan nan nan nan nan nan nan
nan nan nan nan nan nan nan nan nan nan nan 49 51 53 51 50 nan nan nan nan nan nan nan nan nan nan nan nan nan nan nan nan nan nan nan nan nan nan nan nan nan nan nan nan
nan nan nan nan nan nan nan nan nan nan nan nan 42 42 45 nan nan nan nan nan nan nan nan nan nan nan nan nan nan nan nan nan nan nan nan nan nan nan nan nan nan nan nan nan
nan nan nan nan nan nan nan nan nan nan nan nan nan nan nan nan nan nan nan nan nan nan nan nan nan nan nan nan nan nan nan nan nan nan nan nan nan nan nan nan nan nan nan nan
Wind_Direction
nan nan nan nan nan nan nan nan 238 234 231 nan nan nan nan nan 139 145 145 nan nan nan nan 53 89 99 146 129 118 77 23 81 93 115 111 102 85 86 96 104 117 120 110 104
nan nan nan nan nan nan nan nan 236 243 257 nan nan nan nan nan 145 149 160 nan nan nan 22 339 79 85 72 50 86 100 80 16 105 133 121 110 98 95 91 91 104 124 130 126
nan nan nan nan nan nan nan nan 247 252 nan 238 nan nan nan nan 154 146 142 nan nan nan nan 342 34 28 140 86 100 86 113 360 101 115 128 130 130 114 108 98 89 97 121 131
nan nan nan nan nan nan nan nan nan 267 nan nan nan nan nan 286 172 157 149 nan nan nan nan 306 69 62 339 52 120 129 148 132 187 89 127 111 100 103 95 93 93 89 97 127
nan nan nan nan nan nan nan nan nan 252 241 242 246 nan nan 306 223 174 147 nan nan nan nan 313 28 37 4 300 312 120 171 159 187 221 72 127 128 118 117 109 98 93 90 99
nan nan nan nan nan nan nan nan nan 225 237 nan nan nan nan 300 345 8 116 nan nan nan nan nan 297 315 332 295 269 206 176 176 185 188 225 132 115 121 128 118 109 109 107 104
nan nan nan nan nan nan nan nan nan nan nan nan nan nan nan nan nan 18 49 197 nan nan nan nan nan nan nan 262 248 228 178 194 181 198 188 190 183 126 126 116 122 119 128 127
nan nan nan nan nan nan nan nan nan nan nan nan nan nan nan nan nan 244 312 269 279 257 nan nan nan nan 262 245 240 235 212 196 197 191 185 195 194 175 147 147 149 141 145 146
nan nan nan nan nan nan nan nan nan nan nan nan nan nan 204 212 227 240 263 282 265 244 246 nan nan 197 196 235 235 225 222 198 208 195 193 197 194 190 178 175 165 165 163 157
nan nan nan nan nan nan nan nan nan nan nan nan nan nan nan 212 216 214 232 265 255 252 247 252 243 241 239 236 235 235 232 227 219 214 196 204 194 193 192 199 178 173 164 159
nan nan nan nan nan nan nan nan nan nan nan nan nan nan 211 209 224 240 240 251 261 267 268 276 277 261 233 239 246 246 238 224 223 218 216 211 204 198 197 199 194 188 191 181
nan nan nan nan nan nan nan nan nan nan nan nan nan nan 215 224 229 243 251 251 246 246 238 247 258 240 243 245 228 233 246 236 221 215 217 217 219 213 206 204 202 191 186 197
nan nan nan nan nan nan nan nan nan nan nan nan nan nan 228 229 230 234 246 248 242 239 244 249 253 251 243 251 253 242 257 246 232 220 221 218 218 224 218 209 213 211 201 193
nan nan nan nan nan nan nan nan nan nan nan nan nan 241 241 242 244 245 244 243 247 nan 234 243 nan nan 251 252 nan nan nan nan nan 230 208 219 221 222 224 215 214 220 215 216
nan nan nan nan nan nan nan nan nan nan nan nan 250 256 255 252 251 241 nan nan nan nan 236 nan 246 247 252 253 248 255 262 244 nan nan nan nan 214 227 225 216 210 216 215 210
nan nan nan nan nan nan nan nan nan nan 229 226 250 250 246 251 249 247 nan nan nan nan 258 235 239 248 246 247 247 241 246 232 244 242 229 228 216 234 nan nan 213 215 216 214
nan nan nan nan nan nan nan nan nan 225 222 250 247 247 255 258 256 261 264 nan nan nan nan nan 230 228 237 239 239 241 231 234 236 243 251 235 228 232 225 227 nan nan 216 219
nan nan nan nan nan nan nan 221 233 236 228 234 242 252 252 253 245 245 255 266 nan nan nan 237 229 229 224 236 236 235 238 239 235 239 249 256 247 259 236 257 229 233 228 221
nan nan nan nan nan nan nan nan nan nan 225 238 253 250 251 254 254 249 nan nan nan nan nan nan nan nan nan nan 234 242 238 241 238 239 241 243 244 253 247 251 264 223 209 222
nan nan nan nan nan nan nan nan nan 231 227 220 247 250 261 262 255 nan nan nan nan nan nan nan nan nan nan nan nan nan nan nan nan nan 247 249 251 247 253 253 247 246 234 231
nan nan nan nan nan nan nan nan nan nan nan 244 253 262 264 258 251 259 265 nan nan nan nan nan nan nan nan nan nan nan nan nan nan nan nan nan nan nan 251 253 252 249 nan 244
nan nan nan nan nan nan nan nan nan nan nan 239 241 255 243 250 260 264 266 nan nan nan nan nan nan nan nan nan nan nan nan nan nan nan nan nan nan nan nan nan nan nan nan nan
nan nan nan nan nan nan nan nan nan nan 244 237 247 241 251 259 257 nan nan nan nan nan nan nan nan nan nan nan nan nan nan nan nan nan nan nan nan nan nan nan nan nan nan nan
nan nan nan nan nan nan nan nan nan nan nan 253 260 258 257 261 nan nan nan nan nan nan nan nan nan nan nan nan nan nan nan nan nan nan nan nan nan nan nan nan nan nan nan nan
nan nan nan nan nan nan nan nan nan nan nan nan 248 255 257 nan nan nan nan nan nan nan nan nan nan nan nan nan nan nan nan nan nan nan nan nan nan nan nan nan nan nan nan nan
nan nan nan nan nan nan nan nan nan nan nan nan nan nan nan nan nan nan nan nan nan nan nan nan nan nan nan nan nan nan nan nan nan nan nan nan nan nan nan nan nan nan nan nan